Flag for U.S.A. Weather past 2 weeks in Salt Lake City, Utah, U.S.A.

Now
64 °F

Passing clouds.


Feels Like: 64 °F
Forecast: 44 / 71 °F
Wind: 12 mph from Northwest

Location: Salt Lake City International Airport

Current Time: Mar 29, 2015 at 7:38:30 PM

Latest Report: Mar 29, 2015 at 6:53 PM


Visibility: 10 mi

Pressure: 30.14 "Hg

Humidity: 12%

Dew point: 11 °F

Location of Salt Lake CityLocation

Historic Weather in Salt Lake City — Graph

°F

Salt Lake City temperature yesterday

Maximum temperature yesterday: 73 °F (at 1:53 PM)
Minimum temperature yesterday: 49 °F (at 11:53 PM)
Average temperature yesterday: 60 °F

Past Weeks' High & Low Weather Summary

 TemperatureHumidityPressure
High74 °F (Mar 17, 2:53 PM)93% (Mar 24, 2:53 AM)30.40 "Hg (Mar 24, 2:53 AM)
Low35 °F (Mar 19, 6:53 AM)13% (Mar 21, 3:53 PM)29.80 "Hg (Mar 17, 5:53 PM)
Average54 °F43%30.08 "Hg
* Reported Mar 14 5:53 PM — Mar 29 5:53 PM, Salt Lake City, Weather by CustomWeather, © 2015

Note: Actual official high and low records may vary slightly from our data, if they occured in-between our weather recording intervals... More about our weather records

Advertising

Salt Lake City weather history for previous 24 hours

 ConditionsComfort  
Time TempWeatherWind HumidityBarometerVisibility
5:53 PM
Sun, Mar 29
64 °FPassing clouds.13 mph13%30.14 "Hg10 mi
4:53 PM65 °FPassing clouds.12 mph19%30.13 "Hg10 mi
3:53 PM65 °FSunny.13 mph19%30.16 "Hg10 mi
2:53 PM64 °FPassing clouds.12 mph23%30.18 "Hg10 mi
1:53 PM63 °FPassing clouds.9 mph18%30.20 "Hg10 mi
12:53 PM60 °FPassing clouds.No wind19%30.24 "Hg10 mi
11:53 AM57 °FPassing clouds.No wind23%30.26 "Hg10 mi
10:53 AM52 °FSunny.3 mph31%30.27 "Hg10 mi
9:53 AM49 °FSunny.9 mph38%30.27 "Hg10 mi
8:53 AM45 °FSunny.3 mph48%30.27 "Hg10 mi
7:53 AM39 °FClear.6 mph60%30.26 "Hg10 mi
6:53 AM40 °FClear.No wind55%30.23 "Hg10 mi
5:53 AM40 °FClear.No wind60%30.22 "Hg10 mi
4:53 AM44 °FClear.6 mph49%30.19 "Hg10 mi
3:53 AM42 °FClear.5 mph57%30.19 "Hg10 mi
2:53 AM44 °FClear.No wind49%30.20 "Hg10 mi
1:53 AM48 °FClear.10 mph37%30.18 "Hg10 mi
12:53 AM48 °FClear.7 mph43%30.17 "Hg10 mi
11:53 PM
Sat, Mar 28
49 °FClear.9 mph46%30.16 "Hg10 mi
10:53 PM53 °FClear.5 mph47%30.12 "Hg10 mi
9:53 PM58 °FPassing clouds.12 mph31%30.10 "Hg10 mi
8:53 PM60 °FPassing clouds.7 mph38%30.07 "Hg10 mi
7:53 PM64 °FScattered clouds.12 mph35%30.05 "Hg10 mi
Weather by CustomWeather, © 2015

See weather overviewHow to use our weather pages